Regional Weather Roundup
Issued by NWS Cleveland, OH

Home | Current Version | Previous Version | Text Only | Print | Product List | Glossary Off
Versions: 1 2 3 4 5 6 7 8 9 10 11 12 13 14 15 16 17 18 19 20 21 22 23 24 25 26 27 28 29 30 31 32 33 34 35 36 37 38 39 40 41 42 43 44 45 46 47 48 49 50

000
ASUS41 KCLE 241310
RWRCLE
OHIO REGIONAL WEATHER ROUNDUP
NATIONAL WEATHER SERVICE WILMINGTON, OH
900 AM EDT FRI MAR 24 2017

NOTE: "FAIR" INDICATES FEW OR NO CLOUDS BELOW 12,000 FEET WITH NO
SIGNIFICANT WEATHER AND/OR OBSTRUCTIONS TO VISIBILITY.

OHZ001>008-015>018-024>027-034-035-043-044-241400-
   NORTHWEST OHIO

CITY           SKY/WX    TMP DP  RH WIND       PRES   REMARKS
DEFIANCE       FAIR      51  41  68 S17G25    30.07R
FINDLAY        FAIR      56  43  61 SW17      30.10R
TOLEDO EXPRESS FAIR      54  43  66 SW17G25   30.05R
TOLEDO EXEC    FAIR      55  45  68 S16G25    30.06S
LIMA           FAIR      54  43  66 S17G26    30.12R
$$

OHZ009>014-019>023-028>033-038-089-241400-
   NORTHEAST OHIO

CITY           SKY/WX    TMP DP  RH WIND       PRES   REMARKS
CLE-HOPKINS    PTSUNNY   53  35  50 S20G25    30.13R
CLE-LAKEFRONT  FAIR      54  37  52 S20G36    30.07S
CUY CO. ARPT   PTSUNNY   54  39  58 SW20G36   30.09S
LORAIN-ELYRIA  PTSUNNY   50  37  61 SW14      30.11R
ASHTABULA      PTSUNNY   49  38  65 S15G25    30.10S
AKRON-CANTON   PTSUNNY   50  36  58 S15       30.16S
WOOSTER        FAIR      48  34  58 SW15      30.16R
MANSFIELD      FAIR      55  41  59 S29G37    30.14S
YOUNGSTOWN     CLOUDY    51  36  56 SW15      30.15S
$$

OHZ042-051>053-060>062-070>072-077>081-241400-
  SOUTHWEST OHIO

CITY           SKY/WX    TMP DP  RH WIND       PRES   REMARKS
CINC-COVINGTON PTSUNNY   55  43  63 S10       30.18R
CINC-LUNKEN    FAIR      53  43  68 S9        30.21R
HAMILTON       FAIR      55  43  63 S5        30.20R
DAYTON         CLOUDY    54  41  61 S15       30.18R
WRIGHT-PAT AFB PTSUNNY   56  42  59 S12       30.19R
DAYTON GENERAL FAIR      54  42  64 S15       30.18R
WILMINGTON     FAIR      53  42  66 S15       30.20R
$$

OHZ036-037-039>041-045>050-054>059-063>069-073>076-082>088-241400-
  CENTRAL AND SOUTHEAST OHIO

CITY           SKY/WX    TMP DP  RH WIND       PRES   REMARKS
COLUMBUS       CLOUDY    55  38  52 S9        30.21R
OSU AIRPORT    FAIR      53  38  56 S13       30.20R
BOLTON FIELD   SUNNY     52  39  62 S10       30.21R
RICKENBACK AFB FAIR      53  39  58 S12       30.21R
NEWARK         PTSUNNY   53  36  52 S8        30.20R
MARION         FAIR      52  39  61 S17       30.16R
LANCASTER      PTSUNNY   57  39  51 S9        30.22R
ZANESVILLE     FAIR      52  32  46 S9        30.22S
NEW PHILLY     PTSUNNY   50  35  56 SE7       30.21F
$$




USA.gov is the U.S. government's official web portal to all federal, state and local government web resources and services.